QPF
0.00 0.00 0.00 0.00 0.00 0.00 0.00 0.00 0.00 0.00 0.00 0.00 0.00 0.00 0.00 0.00 0.00 0.00 0.00 0.00 0.00 0.00 0.00 0.00 0.00 0.00 0.00 0.00 0.00 0.00 0.00 0.00 0.00 0.00 0.00 0.00 0.00 0.00 0.00 0.00 0.00 0.00 0.00 0.00
0.00 0.00 0.00 0.00 0.00 0.00 0.00 0.00 0.00 0.00 0.00 0.00 0.00 0.00 0.00 0.00 0.00 0.00 0.00 0.00 0.00 0.00 0.00 0.00 0.00 0.00 0.00 0.00 0.00 0.00 0.00 0.00 0.00 0.00 0.00 0.00 0.00 0.00 0.00 0.00 0.00 0.00 0.00 0.00
0.00 0.00 0.00 0.00 0.00 0.00 0.00 0.00 0.00 0.00 0.00 0.00 0.00 0.00 0.00 0.00 0.00 0.00 0.00 0.00 0.00 0.00 0.00 0.00 0.00 0.00 0.00 0.00 0.00 0.00 0.00 0.00 0.00 0.00 0.00 0.00 0.00 0.00 0.00 0.00 0.00 0.00 0.00 0.00
0.00 0.00 0.00 0.00 0.00 0.00 0.00 0.00 0.00 0.00 0.00 0.00 0.00 0.00 0.00 0.00 0.00 0.00 0.00 0.00 0.00 0.00 0.00 0.00 0.00 0.00 0.00 0.00 0.00 0.00 0.00 0.00 0.00 0.00 0.00 0.00 0.00 0.00 0.00 0.00 0.00 0.00 0.00 0.00
0.00 0.00 0.00 0.00 0.00 0.00 0.00 0.00 0.00 0.00 0.00 0.00 0.00 0.00 0.00 0.00 0.00 0.00 0.00 0.00 0.00 0.00 0.00 0.00 0.00 0.00 0.00 0.00 0.00 0.00 0.00 0.00 0.00 0.00 0.00 0.00 0.00 0.00 0.00 0.00 0.00 0.00 0.00 0.00
0.00 0.00 0.00 0.00 0.00 0.00 0.00 0.00 0.00 0.00 0.00 0.00 0.00 0.00 0.00 0.00 0.00 0.00 0.00 0.00 0.00 0.00 0.00 0.00 0.00 0.00 0.00 0.00 0.00 0.00 0.00 0.00 0.00 0.00 0.00 0.00 0.00 0.00 0.00 0.00 0.00 0.00 0.00 0.00
0.00 0.00 0.00 0.00 0.00 0.00 0.00 0.00 0.00 0.00 0.00 0.00 0.00 0.00 0.00 0.00 0.00 0.00 0.00 0.00 0.00 0.00 0.00 0.00 0.00 0.00 0.00 0.00 0.00 0.00 0.00 0.00 0.00 0.00 0.00 0.00 0.00 0.01 0.00 0.00 0.00 0.00 0.00 0.00
0.00 0.00 0.00 0.00 0.00 0.00 0.00 0.00 0.00 0.00 0.00 0.00 0.00 0.00 0.00 0.00 0.00 0.00 0.00 0.00 0.00 0.00 0.00 0.00 0.00 0.00 0.00 0.00 0.00 0.00 0.00 0.00 0.00 0.00 0.00 0.00 0.00 0.00 0.00 0.00 0.00 0.00 0.00 0.00
0.00 0.00 0.00 0.00 0.00 0.00 0.00 0.00 0.00 0.00 0.00 0.00 0.00 0.00 0.00 0.00 0.00 0.00 0.00 0.00 0.00 0.00 0.00 0.00 0.00 0.00 0.00 0.00 0.00 0.00 0.00 0.00 0.00 0.00 0.00 0.00 0.00 0.00 0.00 0.00 0.00 0.00 0.00 0.00
0.00 0.00 0.00 0.00 0.00 0.00 0.00 0.00 0.00 0.00 0.00 0.00 0.00 0.00 0.00 0.00 0.00 0.00 0.00 0.00 0.00 0.00 0.00 0.00 0.00 0.00 0.00 0.00 0.00 0.00 0.00 0.00 0.00 0.00 0.00 0.00 0.00 0.00 0.00 0.00 0.00 0.00 0.00 0.00
0.00 0.00 0.00 0.00 0.00 0.00 0.00 0.00 0.00 0.00 0.00 0.00 0.00 0.00 0.00 0.00 0.00 0.00 0.00 0.00 0.00 0.00 0.00 0.00 0.00 0.00 0.00 0.00 0.00 0.00 0.00 0.00 0.00 0.00 0.00 0.00 0.00 0.00 0.00 0.01 0.01 0.00 0.00 0.00
0.00 0.00 0.00 0.00 0.00 0.00 0.00 0.00 0.00 0.00 0.00 0.00 0.00 0.00 0.00 0.00 0.00 0.00 0.00 0.00 0.00 0.00 0.00 0.00 0.00 0.00 0.00 0.00 0.00 0.00 0.00 0.00 0.00 0.00 0.00 0.00 0.00 0.01 0.01 0.02 0.03 0.02 0.00 0.00
0.00 0.00 0.00 0.00 0.00 0.00 0.00 0.00 0.00 0.00 0.00 0.00 0.00 0.00 0.00 0.00 0.00 0.00 0.00 0.00 0.00 0.00 0.00 0.00 0.00 0.00 0.00 0.00 0.00 0.00 0.00 0.00 0.00 0.00 0.00 0.00 0.00 0.00 0.01 0.02 0.02 0.02 0.01 0.01
0.00 0.00 0.00 0.00 0.00 0.00 0.00 0.00 0.00 0.00 0.00 0.00 0.00 0.00 0.00 0.00 0.00 0.00 0.00 0.00 0.00 0.00 0.00 0.00 0.00 0.00 0.00 0.00 0.00 0.00 0.00 0.00 0.00 0.00 0.00 0.00 0.00 0.00 0.00 0.01 0.01 0.02 0.02 0.02
0.00 0.00 0.00 0.00 0.00 0.00 0.00 0.00 0.00 0.00 0.00 0.00 0.00 0.00 0.00 0.00 0.00 0.00 0.00 0.00 0.00 0.00 0.00 0.00 0.00 0.00 0.00 0.00 0.00 0.00 0.00 0.00 0.00 0.00 0.00 0.00 0.00 0.00 0.00 0.00 0.00 0.00 0.00 0.00
0.00 0.00 0.00 0.00 0.00 0.00 0.00 0.00 0.00 0.00 0.00 0.00 0.00 0.00 0.00 0.00 0.00 0.00 0.00 0.00 0.00 0.00 0.00 0.00 0.00 0.00 0.00 0.00 0.00 0.00 0.00 0.00 0.00 0.00 0.00 0.00 0.00 0.00 0.00 0.00 0.00 0.00 0.00 0.00
0.00 0.00 0.00 0.00 0.00 0.00 0.00 0.00 0.00 0.00 0.00 0.00 0.00 0.00 0.00 0.00 0.00 0.00 0.00 0.00 0.00 0.00 0.00 0.00 0.00 0.00 0.00 0.00 0.00 0.00 0.00 0.00 0.00 0.00 0.00 0.00 0.00 0.00 0.00 0.00 0.00 0.00 0.00 0.00
0.00 0.00 0.00 0.00 0.00 0.00 0.00 0.00 0.00 0.00 0.00 0.00 0.00 0.00 0.00 0.00 0.00 0.00 0.00 0.00 0.00 0.00 0.00 0.00 0.00 0.00 0.00 0.00 0.00 0.00 0.00 0.00 0.00 0.00 0.00 0.00 0.00 0.00 0.00 0.00 0.00 0.00 0.00 0.00
0.00 0.00 0.00 0.00 0.00 0.00 0.00 0.00 0.00 0.00 0.00 0.00 0.00 0.00 0.00 0.00 0.00 0.00 0.00 0.00 0.00 0.00 0.00 0.00 0.00 0.00 0.00 0.00 0.00 0.00 0.00 0.00 0.00 0.00 0.00 0.00 0.00 0.00 0.00 0.00 0.00 0.00 0.00 0.00
0.00 0.00 0.00 0.00 0.00 0.00 0.00 0.00 0.00 0.00 0.00 0.00 0.00 0.00 0.00 0.00 0.00 0.00 0.00 0.00 0.00 0.00 0.00 0.00 0.00 0.00 0.00 0.00 0.00 0.00 0.00 0.00 0.00 0.00 0.00 0.00 0.00 0.00 0.00 0.00 0.00 0.00 0.00 0.00
0.00 0.00 0.00 0.00 0.00 0.00 0.00 0.00 0.00 0.00 0.00 0.00 0.00 0.00 0.00 0.00 0.00 0.00 0.00 0.00 0.00 0.00 0.00 0.00 0.00 0.00 0.00 0.00 0.00 0.00 0.00 0.00 0.00 0.00 0.00 0.00 0.00 0.00 0.00 0.00 0.00 0.00 0.00 0.00
0.00 0.00 0.00 0.00 0.00 0.00 0.00 0.00 0.00 0.00 0.00 0.00 0.00 0.00 0.00 0.00 0.00 0.00 0.00 0.00 0.00 0.00 0.00 0.00 0.00 0.00 0.00 0.00 0.00 0.00 0.00 0.00 0.00 0.00 0.00 0.00 0.00 0.00 0.00 0.00 0.00 0.00 0.00 0.00
0.00 0.00 0.00 0.00 0.00 0.00 0.00 0.00 0.00 0.00 0.00 0.00 0.00 0.00 0.00 0.00 0.00 0.00 0.00 0.00 0.00 0.00 0.00 0.00 0.00 0.00 0.00 0.00 0.00 0.00 0.00 0.00 0.00 0.00 0.00 0.00 0.00 0.00 0.00 0.00 0.00 0.00 0.00 0.00
0.00 0.00 0.00 0.00 0.00 0.00 0.00 0.00 0.00 0.00 0.00 0.00 0.00 0.00 0.00 0.00 0.00 0.00 0.00 0.00 0.00 0.00 0.00 0.00 0.00 0.00 0.00 0.00 0.00 0.00 0.00 0.00 0.00 0.00 0.00 0.00 0.00 0.00 0.00 0.00 0.00 0.00 0.00 0.00
0.00 0.00 0.00 0.00 0.00 0.00 0.00 0.00 0.00 0.00 0.00 0.00 0.00 0.00 0.00 0.00 0.00 0.00 0.00 0.00 0.00 0.00 0.00 0.00 0.00 0.00 0.00 0.00 0.00 0.00 0.00 0.00 0.00 0.00 0.00 0.00 0.00 0.00 0.00 0.00 0.00 0.00 0.00 0.00
0.00 0.00 0.00 0.00 0.00 0.00 0.00 0.00 0.00 0.00 0.00 0.00 0.00 0.00 0.00 0.00 0.00 0.00 0.00 0.00 0.00 0.00 0.00 0.00 0.00 0.00 0.00 0.00 0.00 0.00 0.00 0.00 0.00 0.00 0.00 0.00 0.00 0.00 0.00 0.00 0.00 0.00 0.00 0.00
MSLP
1014.80 1013.57 1014.37 1014.96 1014.44 1014.38 1014.29 1014.43 1015.12 1016.12 1016.75 1015.97 1015.76 1015.71 1016.05 1016.24 1016.02 1015.79 1015.52 1015.34 1015.17 1015.27 1015.50 1015.09 1014.86 1014.61 1014.23 1014.03 1013.44 1012.72 1011.95 1012.58 1013.14 1012.82 1012.57 1012.59 1012.80 1013.52 1014.02 1013.75 1013.73 1014.11 1014.73 1015.05
1014.94 1015.47 1016.51 1016.32 1015.84 1015.49 1015.07 1014.98 1015.94 1016.59 1016.89 1015.84 1016.14 1016.12 1016.56 1016.65 1016.77 1016.79 1016.53 1016.28 1016.18 1016.06 1015.83 1015.89 1015.56 1015.37 1015.13 1015.10 1014.78 1014.17 1013.58 1012.52 1012.34 1012.51 1012.25 1012.02 1011.92 1012.14 1012.65 1012.81 1012.78 1013.17 1013.23 1013.78
1015.11 1017.14 1017.31 1016.70 1016.50 1015.98 1016.15 1016.20 1016.58 1016.64 1016.95 1016.52 1015.88 1016.51 1016.94 1017.04 1017.18 1017.30 1017.27 1017.29 1017.11 1016.96 1016.80 1016.81 1016.50 1016.09 1015.87 1015.56 1015.49 1015.11 1014.56 1013.74 1012.75 1011.88 1011.91 1011.79 1011.76 1011.66 1011.54 1011.59 1011.68 1011.91 1012.58 1012.70
1016.96 1017.92 1017.47 1017.17 1017.18 1016.66 1016.63 1017.69 1017.53 1017.03 1015.92 1015.59 1016.63 1016.04 1017.42 1017.30 1017.42 1017.52 1017.83 1017.76 1017.79 1017.72 1017.65 1017.47 1017.34 1016.95 1016.59 1016.66 1016.59 1015.93 1015.00 1014.29 1013.11 1012.29 1011.41 1011.29 1010.91 1010.44 1010.26 1010.45 1010.70 1010.93 1011.33 1011.65
1017.76 1018.01 1017.78 1017.70 1018.24 1018.15 1017.84 1017.97 1017.42 1016.98 1015.92 1015.69 1016.38 1015.81 1017.75 1017.86 1017.81 1018.03 1018.23 1018.44 1018.38 1018.38 1018.26 1018.07 1018.07 1017.84 1017.74 1017.39 1017.05 1016.50 1015.70 1015.08 1014.38 1013.06 1011.78 1010.99 1010.69 1010.43 1010.21 1010.01 1009.96 1010.24 1010.35 1010.68
1018.15 1018.94 1018.74 1018.83 1019.02 1018.58 1018.23 1017.54 1017.18 1016.79 1016.25 1015.55 1016.75 1015.99 1017.77 1018.14 1018.73 1018.69 1018.75 1018.69 1018.86 1018.83 1018.74 1018.71 1018.78 1018.67 1018.43 1018.13 1017.66 1017.21 1016.28 1016.00 1015.47 1014.57 1013.33 1011.70 1010.62 1010.45 1010.21 1009.72 1009.39 1009.50 1009.58 1009.83
1018.48 1019.14 1019.47 1019.45 1018.71 1018.27 1017.51 1017.00 1015.95 1015.47 1015.32 1015.54 1017.02 1016.78 1018.08 1019.11 1019.34 1019.44 1019.37 1019.27 1019.34 1019.33 1019.33 1019.23 1019.15 1019.30 1019.05 1018.72 1018.56 1017.92 1017.67 1016.85 1016.79 1015.94 1014.85 1013.96 1012.32 1010.52 1010.10 1009.82 1009.36 1009.01 1008.86 1008.92
1017.52 1019.33 1019.37 1019.77 1019.07 1018.28 1017.96 1017.24 1015.88 1015.61 1015.53 1015.93 1017.29 1017.14 1018.30 1019.45 1019.74 1019.84 1019.76 1019.66 1019.71 1019.75 1019.82 1019.77 1019.91 1020.01 1019.94 1019.78 1019.59 1019.09 1018.89 1018.29 1017.68 1017.19 1016.10 1015.23 1014.50 1013.38 1011.06 1009.75 1009.11 1008.65 1008.23 1008.20
1017.79 1019.06 1020.12 1020.13 1019.85 1019.38 1018.46 1017.58 1018.08 1017.29 1017.58 1016.97 1016.69 1018.14 1019.13 1019.61 1019.87 1020.08 1020.13 1020.06 1020.12 1020.16 1020.19 1020.19 1020.25 1020.33 1020.25 1020.21 1020.29 1020.29 1019.47 1019.37 1018.88 1017.99 1017.34 1016.37 1015.43 1014.35 1013.81 1012.59 1011.37 1009.64 1008.35 1007.61
1018.50 1019.15 1020.32 1020.49 1020.17 1019.83 1018.55 1018.96 1018.38 1018.00 1017.22 1016.65 1016.73 1017.25 1017.19 1019.29 1019.88 1020.10 1020.21 1020.23 1020.33 1020.41 1020.43 1020.49 1020.53 1020.61 1020.65 1020.56 1020.91 1020.51 1020.27 1020.15 1019.73 1018.52 1017.87 1017.26 1016.27 1015.52 1015.11 1013.74 1012.45 1010.85 1011.34 1009.15
1018.84 1018.55 1020.45 1020.56 1019.88 1019.22 1019.56 1018.98 1018.90 1018.52 1018.45 1017.33 1016.92 1016.58 1018.48 1019.58 1020.34 1020.40 1020.40 1020.48 1020.53 1020.55 1020.63 1020.70 1020.83 1020.80 1020.89 1020.84 1020.74 1020.61 1020.85 1020.44 1019.95 1019.31 1018.39 1017.99 1017.13 1016.26 1015.09 1014.23 1014.37 1012.67 1011.68 1011.11
1019.89 1019.16 1019.30 1020.17 1020.71 1020.65 1020.01 1019.69 1019.33 1018.54 1019.05 1018.84 1018.46 1017.93 1019.22 1020.10 1020.66 1020.87 1020.70 1020.88 1020.87 1020.84 1020.71 1020.75 1020.96 1020.98 1020.95 1020.81 1020.84 1020.59 1020.76 1020.77 1019.76 1019.81 1018.88 1018.61 1017.80 1016.57 1015.78 1015.34 1014.31 1013.23 1012.54 1011.36
1019.98 1019.54 1019.67 1020.48 1021.00 1020.93 1020.31 1020.44 1020.53 1020.47 1020.26 1019.17 1018.74 1017.95 1019.68 1020.35 1020.54 1020.90 1020.96 1020.89 1020.82 1021.02 1020.87 1020.81 1020.82 1021.02 1021.03 1020.95 1020.96 1020.59 1020.35 1020.28 1020.10 1019.58 1019.30 1018.49 1017.85 1016.95 1016.30 1015.80 1015.12 1014.78 1012.87 1011.22
1020.50 1019.91 1019.47 1019.25 1019.43 1019.70 1020.37 1020.58 1020.84 1020.69 1020.48 1019.48 1018.78 1018.41 1019.47 1019.88 1020.25 1020.69 1020.79 1020.87 1020.80 1020.92 1021.07 1021.08 1021.17 1021.17 1021.16 1021.15 1021.02 1020.74 1020.71 1020.58 1020.38 1019.69 1018.85 1018.33 1018.27 1017.49 1017.02 1016.38 1015.42 1014.61 1013.86 1012.45
1020.81 1020.55 1020.61 1020.63 1020.89 1020.97 1020.73 1020.72 1020.83 1020.57 1020.27 1019.99 1018.88 1019.10 1019.14 1019.87 1020.38 1020.68 1020.92 1021.01 1021.00 1020.99 1021.15 1021.30 1021.37 1021.39 1021.36 1021.26 1021.02 1020.83 1020.62 1020.15 1019.88 1019.41 1019.14 1017.96 1018.03 1019.13 1016.42 1016.99 1015.79 1014.84 1013.41 1012.72
1021.43 1021.33 1021.32 1021.31 1021.36 1021.35 1020.98 1020.66 1020.38 1020.25 1020.01 1019.58 1019.48 1019.14 1019.45 1020.19 1020.61 1020.72 1020.85 1020.99 1021.01 1021.04 1021.26 1021.47 1021.64 1021.65 1021.57 1021.42 1021.33 1020.98 1020.57 1020.17 1019.72 1019.28 1018.80 1018.44 1018.04 1017.15 1019.44 1016.56 1015.68 1015.04 1013.46 1012.93
1021.22 1021.33 1021.58 1021.18 1021.47 1021.22 1020.52 1019.31 1019.13 1019.26 1019.21 1019.18 1018.97 1018.85 1019.35 1020.13 1020.51 1020.64 1020.80 1020.99 1021.13 1021.30 1021.53 1021.72 1021.85 1021.86 1021.84 1021.69 1021.54 1021.22 1020.87 1020.39 1020.02 1019.34 1018.93 1018.70 1018.40 1018.29 1017.25 1016.41 1016.18 1015.79 1014.10 1012.95
1020.97 1021.33 1021.66 1021.35 1021.51 1020.58 1018.63 1018.66 1018.26 1018.35 1018.54 1018.81 1018.96 1019.25 1019.74 1020.09 1020.65 1020.86 1020.91 1021.04 1021.32 1021.68 1021.87 1022.01 1022.09 1022.06 1021.98 1021.81 1021.57 1021.34 1020.89 1020.29 1019.87 1019.43 1019.08 1018.68 1018.20 1017.37 1016.39 1015.79 1015.55 1015.18 1014.70 1014.62
1021.24 1021.29 1021.91 1021.66 1020.52 1018.56 1018.35 1018.47 1018.10 1017.91 1017.85 1018.27 1018.55 1019.21 1019.92 1020.45 1020.97 1020.43 1020.99 1021.66 1021.94 1022.05 1022.25 1022.37 1022.36 1022.23 1021.93 1021.72 1021.65 1021.28 1020.63 1020.11 1019.55 1019.14 1018.75 1018.29 1017.63 1016.69 1015.87 1015.51 1015.44 1015.01 1014.63 1013.45
1021.85 1021.75 1021.72 1021.75 1020.19 1018.11 1017.49 1018.00 1018.20 1018.58 1017.44 1017.31 1018.51 1019.11 1019.86 1020.39 1020.26 1019.72 1021.09 1021.78 1022.05 1022.30 1022.44 1022.49 1022.50 1022.24 1021.96 1021.88 1021.67 1021.26 1020.65 1020.07 1019.56 1019.29 1018.73 1018.09 1017.36 1016.69 1016.11 1015.46 1014.67 1013.96 1013.43 1013.12
1021.16 1021.50 1021.31 1020.82 1019.68 1017.88 1017.31 1018.15 1018.54 1018.38 1017.40 1017.75 1018.49 1019.19 1019.88 1020.16 1020.28 1020.88 1021.52 1021.78 1022.18 1022.37 1022.38 1022.52 1022.37 1022.26 1022.26 1022.08 1021.77 1021.27 1020.83 1020.37 1020.14 1019.51 1018.83 1018.15 1017.55 1017.04 1016.47 1015.79 1015.20 1014.10 1013.49 1012.88
1018.55 1019.46 1019.82 1019.93 1019.20 1017.55 1017.03 1018.32 1017.86 1017.15 1017.72 1018.28 1018.90 1019.44 1020.05 1020.45 1020.84 1021.15 1021.43 1021.75 1022.04 1022.22 1022.31 1022.55 1022.45 1022.31 1022.24 1022.10 1021.77 1021.36 1020.88 1020.73 1020.32 1019.71 1018.97 1018.28 1017.75 1017.11 1016.22 1015.47 1014.84 1014.32 1013.41 1012.47
1017.23 1016.52 1017.04 1017.29 1016.56 1016.60 1016.58 1016.64 1017.08 1017.53 1017.86 1018.52 1019.01 1019.55 1020.16 1020.54 1020.73 1021.03 1021.34 1021.79 1022.11 1022.31 1022.45 1022.46 1022.43 1022.31 1022.25 1022.19 1021.96 1021.56 1021.31 1021.02 1020.48 1019.74 1018.95 1018.23 1017.64 1016.97 1016.28 1015.30 1014.27 1013.56 1013.06 1012.25
1016.34 1016.52 1016.41 1016.61 1015.80 1016.29 1016.50 1016.79 1017.20 1017.79 1018.11 1018.64 1019.16 1019.54 1019.96 1020.48 1020.74 1021.00 1021.38 1021.78 1022.16 1022.30 1022.43 1022.58 1022.53 1022.42 1022.44 1022.37 1022.12 1021.86 1021.58 1021.23 1020.63 1019.91 1019.11 1018.32 1017.66 1016.94 1016.06 1015.08 1014.12 1013.08 1012.04 1011.16
1014.95 1015.88 1015.42 1015.40 1015.47 1016.26 1016.31 1016.41 1017.09 1017.68 1018.39 1018.80 1019.09 1019.54 1020.02 1020.31 1020.55 1020.89 1021.41 1021.95 1022.28 1022.49 1022.69 1022.89 1022.90 1022.98 1022.82 1022.66 1022.36 1022.09 1021.71 1021.40 1020.94 1020.27 1019.43 1018.63 1017.85 1016.85 1015.78 1014.91 1013.97 1012.99 1012.00 1011.29
1014.76 1014.10 1014.29 1013.81 1014.06 1014.85 1015.19 1015.94 1016.58 1017.21 1017.94 1018.56 1018.91 1019.38 1019.93 1020.27 1020.44 1021.14 1021.65 1022.24 1022.59 1022.81 1023.01 1023.04 1023.23 1023.20 1023.00 1022.80 1022.55 1022.27 1022.10 1021.98 1021.29 1020.40 1019.57 1018.79 1017.91 1016.81 1015.72 1014.50 1012.73 1011.91 1011.26 1010.16
Thickness
5655 5667 5654 5650 5662 5665 5665 5665 5658 5653 5651 5660 5660 5661 5662 5667 5671 5673 5678 5682 5685 5687 5691 5698 5705 5712 5719 5724 5732 5739 5748 5748 5745 5750 5753 5754 5754 5749 5746 5749 5749 5746 5742 5741
5648 5633 5634 5641 5646 5651 5657 5659 5645 5645 5644 5658 5652 5650 5652 5655 5656 5658 5660 5664 5667 5672 5676 5679 5686 5691 5697 5700 5706 5715 5722 5735 5741 5744 5749 5752 5752 5752 5749 5749 5752 5750 5749 5744
5642 5622 5629 5636 5637 5643 5641 5640 5634 5636 5635 5645 5648 5634 5636 5643 5645 5646 5648 5648 5650 5653 5656 5659 5664 5670 5675 5682 5687 5694 5702 5712 5724 5737 5741 5744 5746 5748 5751 5754 5755 5754 5748 5747
5619 5616 5622 5628 5624 5637 5634 5624 5622 5624 5640 5637 5633 5625 5618 5626 5628 5630 5628 5631 5632 5634 5637 5642 5645 5648 5654 5658 5663 5674 5685 5695 5707 5717 5727 5731 5739 5744 5753 5751 5752 5751 5747 5746
5605 5609 5614 5616 5610 5615 5615 5617 5620 5623 5633 5638 5625 5629 5605 5615 5610 5611 5612 5611 5613 5615 5617 5620 5623 5627 5629 5634 5641 5652 5664 5673 5682 5697 5711 5721 5727 5735 5740 5744 5746 5745 5745 5743
5601 5601 5604 5603 5603 5608 5612 5617 5619 5621 5623 5625 5609 5623 5599 5598 5594 5597 5597 5597 5594 5594 5596 5597 5598 5600 5603 5610 5617 5625 5639 5647 5658 5670 5683 5700 5714 5718 5720 5727 5734 5738 5740 5738
5594 5589 5592 5595 5602 5609 5616 5616 5619 5623 5625 5616 5604 5607 5593 5586 5587 5584 5581 5581 5580 5578 5574 5574 5575 5574 5576 5581 5588 5598 5605 5620 5627 5640 5654 5665 5681 5702 5708 5711 5718 5725 5730 5733
5601 5580 5586 5586 5593 5599 5600 5608 5618 5601 5613 5611 5596 5593 5587 5582 5580 5577 5577 5575 5571 5566 5563 5561 5558 5554 5553 5555 5558 5567 5574 5585 5597 5607 5623 5635 5646 5658 5682 5698 5705 5712 5720 5725
5591 5577 5574 5576 5582 5588 5591 5599 5595 5590 5584 5589 5601 5583 5579 5575 5571 5567 5563 5563 5560 5557 5554 5552 5550 5547 5545 5543 5540 5540 5550 5556 5567 5580 5591 5606 5618 5630 5638 5643 5663 5687 5703 5716
5579 5571 5568 5569 5576 5580 5591 5588 5584 5585 5582 5585 5593 5585 5591 5567 5561 5561 5558 5555 5553 5550 5546 5541 5539 5537 5535 5534 5529 5528 5529 5532 5540 5555 5568 5579 5593 5603 5609 5623 5636 5652 5655 5683
5578 5585 5562 5565 5573 5581 5575 5580 5579 5583 5577 5583 5585 5594 5578 5563 5555 5553 5554 5551 5547 5544 5540 5535 5530 5527 5525 5523 5523 5523 5517 5519 5522 5530 5544 5553 5565 5578 5593 5603 5606 5619 5629 5642
5561 5576 5574 5566 5561 5563 5569 5569 5575 5580 5567 5569 5569 5576 5567 5557 5551 5547 5546 5542 5539 5537 5535 5530 5522 5517 5512 5513 5513 5515 5509 5505 5515 5513 5525 5529 5541 5556 5569 5577 5588 5603 5607 5619
5560 5568 5565 5557 5556 5556 5561 5560 5557 5555 5552 5561 5559 5577 5557 5549 5546 5541 5538 5537 5535 5529 5527 5523 5518 5509 5503 5500 5499 5502 5504 5501 5498 5505 5508 5516 5525 5536 5546 5555 5564 5572 5589 5604
5551 5559 5566 5578 5572 5568 5553 5552 5550 5550 5542 5553 5560 5563 5550 5547 5541 5536 5535 5532 5528 5524 5519 5515 5508 5503 5497 5492 5490 5489 5486 5486 5489 5493 5498 5502 5507 5515 5523 5531 5544 5554 5564 5577
5546 5544 5547 5549 5545 5543 5547 5545 5541 5541 5545 5537 5556 5545 5549 5541 5535 5530 5528 5525 5521 5517 5511 5506 5501 5496 5491 5486 5483 5480 5478 5482 5481 5484 5483 5493 5490 5480 5510 5509 5522 5534 5548 5556
5534 5534 5535 5528 5535 5534 5534 5539 5540 5540 5540 5543 5541 5540 5544 5534 5529 5525 5523 5520 5516 5512 5506 5499 5492 5487 5483 5480 5475 5473 5471 5470 5472 5473 5474 5477 5478 5487 5462 5493 5503 5512 5530 5537
5532 5533 5529 5538 5530 5530 5530 5540 5544 5541 5541 5540 5534 5541 5537 5525 5521 5519 5517 5514 5510 5504 5497 5491 5484 5479 5474 5471 5467 5464 5461 5459 5455 5458 5459 5458 5462 5461 5474 5480 5478 5484 5503 5515
5528 5529 5526 5531 5525 5524 5552 5547 5548 5544 5541 5537 5534 5531 5525 5521 5514 5510 5511 5507 5501 5494 5488 5482 5476 5471 5466 5462 5458 5454 5453 5453 5451 5449 5446 5444 5446 5453 5464 5472 5468 5471 5481 5476
5521 5524 5502 5512 5532 5553 5547 5538 5539 5537 5539 5535 5531 5524 5516 5511 5503 5506 5502 5493 5488 5483 5478 5472 5467 5462 5459 5455 5450 5447 5447 5446 5445 5443 5440 5438 5439 5445 5450 5452 5453 5453 5456 5462
5503 5511 5511 5495 5518 5538 5547 5537 5535 5527 5529 5539 5524 5517 5509 5504 5503 5507 5492 5483 5478 5473 5468 5463 5457 5454 5451 5445 5440 5438 5437 5437 5435 5430 5428 5428 5429 5429 5430 5435 5440 5445 5447 5451
5493 5494 5490 5502 5510 5534 5540 5527 5522 5515 5532 5525 5517 5509 5502 5498 5499 5490 5481 5476 5470 5464 5460 5455 5451 5446 5441 5436 5432 5429 5425 5422 5416 5415 5415 5414 5413 5412 5413 5415 5418 5429 5431 5433
5512 5500 5496 5502 5494 5507 5534 5517 5519 5528 5518 5512 5506 5500 5493 5489 5484 5479 5475 5469 5463 5457 5452 5445 5441 5437 5432 5426 5423 5419 5415 5409 5404 5402 5401 5400 5399 5399 5403 5406 5407 5408 5416 5423
5515 5530 5524 5521 5526 5524 5528 5525 5521 5514 5509 5501 5496 5491 5484 5479 5476 5473 5467 5460 5453 5448 5442 5438 5434 5429 5422 5416 5411 5407 5400 5395 5391 5390 5390 5389 5388 5388 5389 5394 5400 5405 5404 5408
5512 5515 5517 5512 5525 5516 5517 5516 5511 5503 5498 5493 5487 5482 5478 5470 5467 5464 5459 5452 5445 5440 5435 5429 5424 5419 5411 5404 5399 5393 5388 5382 5379 5377 5377 5376 5375 5376 5379 5384 5389 5397 5405 5410
5517 5506 5515 5513 5514 5504 5510 5509 5501 5495 5486 5481 5478 5473 5467 5464 5461 5457 5450 5442 5436 5430 5423 5417 5411 5403 5398 5393 5388 5382 5377 5371 5366 5363 5363 5362 5363 5366 5371 5375 5380 5387 5392 5396
5503 5515 5511 5516 5520 5513 5511 5503 5498 5491 5482 5474 5471 5466 5460 5456 5454 5445 5439 5430 5424 5417 5410 5406 5399 5393 5389 5383 5377 5371 5363 5355 5353 5353 5353 5351 5352 5357 5361 5369 5382 5385 5388 5393